Wind_Speed
39 38 38 39 38 38 38 38 39 39 39 39 40 39 39 39 38 39 39 39 39 39 40 40 40 41 41 41 40 39 40 40 41 40 40 40 40 40 40 41 41 41 41
38 39 38 39 40 39 39 39 39 38 39 39 40 40 39 39 38 38 38 39 38 38 39 39 40 40 40 40 40 40 41 40 40 40 39 39 39 39 40 40 40 40 40
37 38 38 39 40 39 39 38 38 39 39 39 39 39 39 39 40 39 39 39 38 39 39 39 40 40 40 41 41 42 41 41 40 39 38 38 38 39 38 39 39 39 39
38 37 37 38 39 39 39 38 37 38 38 38 39 39 40 40 40 40 40 40 40 40 39 39 40 40 40 41 41 41 41 40 39 39 38 38 38 39 39 38 38 38 39
37 37 38 39 38 38 39 39 37 37 37 38 39 39 40 40 40 41 41 41 41 40 40 41 41 41 41 41 40 40 40 40 39 39 38 38 38 38 38 38 38 38 38
37 37 37 37 37 38 38 38 38 38 37 38 39 40 40 40 40 41 41 41 41 41 41 41 41 41 41 40 40 40 40 39 39 39 38 38 38 38 38 38 38 37 38
36 37 37 37 37 37 37 37 37 37 38 38 38 38 38 39 39 40 41 41 41 41 40 40 40 40 40 39 38 38 38 38 39 39 38 38 39 38 38 38 38 38 38
36 36 35 36 37 36 36 36 37 37 38 38 37 37 38 38 38 39 39 41 41 41 41 41 41 41 41 41 40 38 38 38 38 38 38 39 38 38 38 38 38 37 38
35 35 36 35 36 36 36 36 36 36 37 37 37 37 38 38 38 38 39 39 39 39 39 40 41 41 41 41 41 40 40 40 39 38 38 38 39 39 38 39 39 39 39
33 34 35 35 34 35 35 35 35 36 37 37 37 37 38 38 38 38 38 38 38 38 38 38 39 40 40 41 41 40 40 40 40 40 39 39 39 38 37 38 38 38 38
32 32 33 33 34 34 35 35 35 36 36 37 37 38 38 38 39 38 38 37 37 38 38 38 38 39 39 39 39 39 39 39 39 40 39 39 39 38 38 38 38 38 37
31 32 32 32 33 34 34 35 35 36 37 37 38 38 38 38 38 39 39 39 38 37 37 37 37 37 38 38 38 38 38 38 39 39 39 39 39 39 39 39 39 39 38
32 32 32 33 33 33 34 35 35 36 36 37 37 38 38 38 38 39 39 39 39 37 36 36 37 37 37 37 37 37 37 37 37 38 38 38 38 39 39 40 40 40 39
31 31 32 33 33 34 34 34 34 35 36 37 37 37 38 38 39 39 38 38 37 37 36 36 36 36 36 36 36 36 37 37 37 38 37 37 37 38 39 38 38 39 38
30 30 31 31 32 33 33 33 34 34 35 35 36 36 36 37 36 36 37 36 36 36 36 37 37 37 37 36 37 37 38 38 38 38 37 36 36 37 38 38 37 37 37
30 30 30 31 31 32 32 33 33 33 34 35 35 36 36 36 36 37 37 36 36 36 37 37 37 37 37 37 37 37 38 38 38 37 37 36 36 36 37 38 38 37 36
30 31 31 31 30 31 31 31 32 32 33 33 34 35 35 35 36 36 36 36 36 36 37 37 37 37 36 36 37 37 37 37 37 37 37 36 36 36 36 37 37 36 35
30 30 30 30 29 30 30 30 31 32 32 33 33 33 34 34 34 34 35 35 34 34 35 36 36 36 36 36 36 36 36 35 35 35 36 36 36 36 35 34 34 33 33
27 28 28 28 28 28 29 30 30 30 31 32 32 32 32 32 33 33 33 34 33 34 34 34 34 35 35 35 35 35 35 34 34 34 34 34 34 34 34 33 33 32 32
25 25 26 26 27 27 28 29 29 29 29 29 30 30 31 31 31 32 32 32 33 33 33 33 33 33 34 34 34 33 33 33 33 33 33 33 32 32 32 32 31 31 30
23 24 24 25 25 26 27 27 27 27 28 28 28 28 29 29 30 30 30 30 30 30 31 31 32 32 33 32 32 32 32 32 32 31 31 31 31 30 30 30 30 29 28
23 23 23 24 24 24 25 25 26 26 27 27 27 27 27 27 27 28 28 28 29 29 29 30 30 30 30 30 31 31 30 30 30 29 29 29 29 28 28 28 28 28 27
22 23 23 23 23 23 24 24 25 25 25 25 25 25 25 26 26 26 26 27 28 29 29 30 29 29 29 29 29 29 28 28 28 28 27 27 27 27 27 27 28 27 27
23 23 23 23 23 23 23 23 23 23 24 24 24 24 24 25 25 25 26 27 28 28 28 28 28 28 28 28 28 27 27 27 27 26 26 26 26 26 25 25 26 25 25
22 22 23 22 23 23 23 23 23 23 23 24 24 24 24 24 25 25 26 26 26 26 26 26 27 26 26 26 26 26 26 26 25 25 25 25 25 24 24 23 23 22 22
22 22 22 22 22 22 22 22 22 22 22 22 22 22 23 23 24 24 24 25 25 24 24 25 25 25 25 25 25 25 25 25 24 24 24 24 23 22 21 21 20 20 19
Wind_Direction
251 252 252 252 252 253 254 256 258 259 259 257 257 258 259 259 260 261 261 262 264 265 267 268 269 271 271 270 270 272 274 275 276 276 276 277 279 279 279 279 280 281 282
252 251 252 252 252 253 255 255 256 257 257 258 259 258 258 259 260 260 260 262 264 265 267 269 270 270 271 271 271 273 275 275 275 275 276 277 278 279 279 280 280 281 283
252 250 251 253 253 253 254 255 255 255 255 257 259 260 259 259 259 259 261 262 264 266 268 269 269 270 271 272 272 274 275 275 275 275 275 276 277 278 279 280 280 281 283
253 251 252 252 252 253 254 254 253 254 255 256 258 259 259 259 259 260 262 263 265 267 268 269 270 271 272 273 273 273 273 274 274 275 275 275 276 278 279 279 280 281 284
253 254 254 254 252 252 252 252 252 252 254 256 257 258 259 260 260 261 263 264 266 266 268 270 271 272 273 273 272 272 272 272 273 274 274 275 277 278 279 280 280 282 284
253 255 254 254 252 252 251 251 251 253 255 256 257 258 260 261 262 263 262 264 266 267 269 270 270 272 272 273 272 272 272 272 272 272 273 275 277 278 279 279 280 282 283
254 255 255 254 253 251 250 251 252 254 256 255 256 257 259 262 263 264 264 264 265 267 269 270 271 273 273 272 272 272 271 271 271 272 273 275 276 277 278 279 280 282 284
256 255 254 253 252 251 250 251 253 254 254 255 257 257 259 261 263 264 264 264 267 268 269 270 271 272 273 272 270 271 271 272 272 272 274 275 275 275 278 279 279 280 283
257 256 255 253 252 251 251 253 253 253 254 256 257 258 260 261 262 263 265 265 268 269 270 271 271 272 272 272 271 271 270 270 270 273 275 274 274 275 277 278 279 279 282
256 256 255 254 253 252 253 255 255 255 256 256 257 258 259 260 261 263 265 266 267 269 270 272 272 271 271 271 270 271 270 270 270 272 273 273 275 276 278 278 279 280 282
256 256 255 254 252 253 255 257 257 256 257 258 258 258 259 261 263 263 265 266 268 270 271 272 272 272 271 270 270 270 270 269 270 272 273 273 274 275 277 278 279 281 282
256 255 255 254 255 255 256 257 258 259 259 259 259 259 260 262 263 264 266 267 268 269 270 271 271 272 272 270 269 269 269 270 270 271 273 274 274 275 276 277 279 281 282
258 257 256 256 256 256 257 257 258 259 259 259 260 260 261 262 263 264 267 268 268 269 270 271 271 271 271 270 269 268 269 270 271 272 273 274 275 275 276 277 279 281 281
257 257 257 257 256 257 258 258 258 259 259 259 260 261 263 263 263 264 266 267 268 268 269 270 271 270 270 270 270 270 269 271 272 273 274 275 276 277 278 279 280 281 281
258 258 258 258 258 259 260 260 260 260 261 260 261 262 263 263 262 264 265 266 267 268 269 271 271 272 272 271 271 271 271 271 272 273 273 275 276 278 278 279 281 281 282
259 259 260 261 261 260 261 261 261 261 261 261 261 262 263 264 264 265 265 266 267 268 269 271 271 272 272 272 272 272 271 272 272 273 274 274 276 276 278 279 281 281 281
259 259 260 262 262 262 262 261 260 260 260 262 263 263 264 264 265 265 266 267 268 269 270 271 271 271 271 271 272 273 273 272 272 273 273 274 275 277 278 279 280 281 280
258 258 259 260 262 262 262 261 261 261 262 263 264 265 265 266 266 266 265 267 268 269 271 271 271 272 272 272 272 272 272 272 272 273 273 273 275 277 278 278 279 281 281
258 258 258 260 262 263 263 263 263 263 264 264 265 266 266 266 267 266 266 267 268 270 272 273 272 272 272 272 271 271 271 272 271 272 272 272 273 275 276 277 279 280 280
259 260 260 261 263 264 264 265 265 264 265 266 266 266 266 266 266 265 265 267 269 270 271 272 272 272 272 271 270 271 271 271 271 271 272 272 273 274 275 275 276 278 278
261 262 262 263 265 266 265 265 265 265 265 266 267 266 267 268 267 265 265 267 269 270 271 271 272 273 272 271 270 270 271 272 272 272 272 272 273 274 274 274 274 276 277
261 262 264 266 267 267 267 265 264 264 265 267 266 266 268 268 266 265 265 267 269 271 272 272 273 272 272 271 271 270 271 271 272 271 271 272 273 273 273 272 273 274 275
263 264 265 267 267 267 267 267 266 266 265 266 267 267 267 268 267 266 267 269 270 272 272 272 272 272 272 272 271 270 271 272 272 271 270 271 272 273 273 272 273 273 273
266 266 267 268 267 267 266 266 266 266 267 267 266 267 267 268 267 268 270 271 272 273 272 272 271 272 272 272 271 270 271 272 271 269 269 270 272 273 273 272 271 271 271
267 267 268 268 267 265 264 265 266 267 268 267 267 267 268 269 269 269 270 272 273 273 273 272 271 271 271 270 269 269 270 270 270 269 269 270 272 271 271 271 270 269 269
267 268 267 267 266 264 263 263 265 267 268 268 268 269 270 271 272 272 271 271 273 274 273 271 271 271 271 270 269 269 269 270 270 269 268 269 269 268 268 267 267 266 266
Height
5628 5630 5633 5635 5637 5640 5642 5644 5647 5649 5651 5653 5656 5657 5659 5662 5663 5665 5667 5668 5669 5670 5671 5671 5672 5672 5672 5672 5672 5671 5670 5669 5669 5668 5667 5666 5664 5663 5662 5661 5660 5659 5658
5618 5620 5623 5625 5627 5630 5632 5635 5637 5639 5641 5643 5645 5647 5649 5651 5653 5655 5657 5658 5659 5660 5660 5661 5661 5661 5661 5661 5661 5661 5660 5658 5657 5657 5656 5655 5654 5652 5651 5650 5649 5648 5647
5607 5610 5613 5615 5617 5619 5622 5624 5626 5628 5630 5633 5635 5637 5639 5641 5643 5645 5646 5648 5649 5650 5650 5651 5651 5650 5651 5651 5650 5650 5649 5647 5646 5646 5646 5645 5644 5643 5641 5640 5639 5638 5637
5597 5600 5603 5605 5607 5609 5611 5613 5616 5618 5620 5622 5624 5626 5628 5630 5632 5634 5636 5637 5638 5639 5639 5640 5640 5640 5640 5640 5639 5638 5638 5637 5636 5636 5635 5635 5634 5633 5632 5631 5630 5629 5627
5587 5590 5593 5595 5597 5599 5601 5603 5606 5608 5610 5612 5614 5616 5618 5620 5622 5624 5625 5627 5627 5628 5629 5629 5629 5629 5628 5628 5628 5627 5627 5626 5626 5625 5625 5625 5624 5623 5622 5621 5620 5619 5618
5578 5581 5583 5585 5587 5589 5591 5594 5596 5598 5600 5602 5604 5606 5608 5609 5611 5613 5614 5616 5617 5617 5618 5618 5618 5618 5618 5617 5617 5616 5616 5616 5616 5615 5615 5615 5614 5613 5612 5611 5610 5610 5609
5569 5571 5573 5575 5577 5579 5582 5584 5586 5589 5590 5592 5594 5596 5598 5599 5601 5602 5603 5604 5605 5606 5606 5607 5607 5606 5606 5606 5606 5605 5605 5605 5605 5605 5605 5604 5604 5603 5602 5601 5600 5599 5598
5559 5561 5563 5565 5567 5570 5572 5574 5576 5578 5580 5582 5584 5586 5588 5589 5591 5592 5592 5593 5594 5594 5595 5595 5595 5595 5595 5595 5595 5594 5594 5594 5595 5595 5595 5594 5593 5592 5592 5591 5590 5589 5588
5550 5551 5553 5555 5557 5560 5562 5564 5566 5568 5570 5572 5574 5576 5578 5579 5581 5581 5582 5582 5583 5583 5584 5584 5584 5584 5584 5583 5583 5584 5584 5584 5583 5583 5584 5583 5582 5582 5581 5580 5579 5578 5578
5540 5541 5543 5545 5548 5550 5552 5554 5556 5558 5560 5562 5564 5566 5567 5569 5570 5571 5571 5572 5572 5573 5573 5573 5572 5572 5571 5571 5571 5572 5572 5573 5572 5573 5573 5573 5572 5571 5570 5570 5569 5568 5567
5530 5532 5534 5536 5538 5540 5542 5544 5546 5548 5550 5552 5554 5556 5557 5558 5559 5560 5560 5561 5561 5561 5561 5561 5561 5561 5560 5560 5560 5560 5561 5561 5561 5561 5561 5561 5561 5561 5560 5559 5559 5557 5556
5521 5523 5525 5526 5528 5530 5532 5534 5535 5537 5540 5541 5543 5545 5546 5547 5548 5549 5550 5550 5550 5550 5550 5551 5550 5550 5549 5549 5549 5549 5550 5550 5550 5551 5551 5551 5551 5550 5550 5549 5548 5547 5546
5512 5514 5515 5517 5518 5520 5522 5524 5525 5527 5529 5531 5532 5534 5535 5536 5537 5538 5538 5539 5539 5539 5539 5540 5539 5539 5538 5538 5538 5539 5539 5539 5539 5540 5540 5540 5540 5540 5539 5538 5537 5536 5535
5503 5504 5506 5507 5509 5511 5512 5513 5515 5517 5518 5520 5522 5523 5524 5525 5526 5526 5527 5527 5527 5528 5528 5528 5528 5528 5528 5528 5528 5528 5528 5528 5528 5529 5529 5529 5529 5529 5528 5528 5527 5526 5525
5494 5496 5497 5498 5499 5501 5502 5503 5505 5507 5508 5509 5511 5512 5513 5514 5515 5515 5516 5516 5516 5517 5517 5517 5518 5518 5517 5517 5517 5517 5517 5517 5518 5518 5518 5518 5518 5518 5517 5517 5516 5515 5515
5485 5487 5488 5489 5490 5491 5492 5494 5495 5496 5497 5498 5500 5501 5502 5503 5504 5504 5505 5505 5505 5506 5506 5506 5506 5506 5506 5506 5506 5506 5506 5506 5507 5507 5507 5508 5508 5507 5507 5506 5506 5505 5504
5476 5477 5479 5480 5481 5481 5482 5484 5485 5486 5487 5488 5489 5490 5491 5492 5493 5493 5493 5494 5494 5494 5495 5495 5495 5495 5495 5495 5495 5495 5495 5495 5496 5496 5496 5497 5497 5497 5496 5496 5495 5494 5494
5466 5468 5469 5470 5471 5472 5473 5474 5475 5476 5477 5478 5479 5479 5480 5481 5481 5482 5482 5483 5483 5484 5484 5484 5485 5484 5484 5484 5484 5484 5484 5484 5485 5485 5486 5486 5486 5486 5485 5485 5485 5484 5484
5457 5459 5460 5461 5462 5463 5464 5465 5465 5466 5467 5468 5469 5469 5470 5470 5470 5471 5471 5472 5473 5473 5474 5474 5474 5474 5473 5473 5474 5474 5474 5474 5474 5475 5475 5475 5475 5475 5475 5475 5474 5474 5473
5449 5451 5452 5453 5453 5454 5455 5456 5456 5457 5458 5458 5459 5460 5460 5460 5460 5461 5461 5462 5463 5463 5463 5463 5463 5463 5463 5463 5463 5463 5464 5464 5464 5464 5465 5465 5465 5465 5465 5465 5465 5464 5464
5442 5443 5443 5444 5445 5445 5446 5446 5447 5448 5448 5449 5450 5450 5450 5450 5451 5451 5452 5452 5453 5453 5453 5453 5453 5453 5452 5452 5453 5453 5453 5454 5454 5454 5454 5455 5455 5455 5455 5455 5455 5455 5455
5435 5435 5436 5436 5437 5437 5437 5438 5438 5439 5439 5440 5440 5441 5441 5441 5442 5442 5443 5443 5443 5443 5443 5443 5443 5443 5442 5442 5443 5443 5443 5444 5444 5444 5445 5445 5446 5446 5446 5446 5447 5447 5447
5427 5428 5428 5428 5429 5429 5429 5430 5430 5430 5431 5431 5432 5432 5432 5432 5433 5433 5433 5434 5434 5434 5433 5433 5433 5433 5433 5433 5433 5433 5434 5435 5435 5435 5436 5437 5437 5437 5437 5437 5438 5438 5439
5420 5420 5421 5421 5421 5421 5422 5422 5422 5422 5423 5423 5423 5424 5424 5424 5424 5424 5424 5424 5424 5424 5424 5424 5424 5424 5424 5424 5424 5425 5425 5426 5426 5426 5427 5428 5429 5429 5429 5429 5429 5430 5430
5412 5412 5413 5413 5413 5414 5414 5414 5414 5415 5415 5415 5415 5415 5415 5416 5416 5416 5416 5415 5415 5415 5415 5414 5415 5415 5415 5415 5415 5416 5416 5417 5417 5418 5419 5420 5420 5420 5421 5421 5422 5422 5423
5405 5405 5405 5405 5405 5406 5406 5407 5407 5407 5407 5407 5407 5407 5407 5407 5407 5407 5407 5407 5407 5406 5406 5406 5406 5406 5406 5406 5407 5407 5408 5409 5409 5410 5410 5411 5412 5413 5413 5414 5414 5415 5416